Home > Time Zones > World Clock > Weather > Greece > Ilio > Past weeks

Flag for Greece Weather past 2 weeks in Ilio, Greece

Now
84 °F

Clear.


Feels Like: 84 °F
Forecast: 75 / 99 °F
Wind: No wind

Location: Elefsis Airport

Current Time: Jul 29, 2015 at 12:52:30 AM

Latest Report: Jul 28, 2015 at 11:50 PM


Visibility: 10 mi

Pressure: 29.74 "Hg

Humidity: 45%

Dew point: 61 °F

Location of IlioLocation

Historic Weather in Ilio — Graph

°F

Ilio temperature yesterday

Maximum temperature yesterday: 99 °F (at 2:20 PM)
Minimum temperature yesterday: 77 °F (at 3:50 AM)
Average temperature yesterday: 87 °F

Past Weeks' High & Low Weather Summary

 TemperatureHumidityPressure
High99 °F (Jul 21, 2:50 PM)73% (Jul 25, 5:20 AM)30.01 "Hg (Jul 25, 5:20 AM)
Low70 °F (Jul 14, 6:50 AM)10% (Jul 21, 12:20 AM)29.68 "Hg (Jul 27, 2:50 PM)
Average85 °F35%29.84 "Hg
* Reported Jul 13 11:20 PM — Jul 28 11:20 PM, Ilio, Weather by CustomWeather, © 2015

Note: Actual official high and low records may vary slightly from our data, if they occured in-between our weather recording intervals... More about our weather records

Advertising

Ilio weather history for previous 24 hours

 ConditionsComfort  
Time TempWeatherWind HumidityBarometerVisibility
11:20 PM
Tue, Jul 28
84 °FClear.No wind45%29.71 "Hg10 mi
10:50 PM86 °FClear.No wind43%29.71 "Hg10 mi
10:20 PM86 °FClear.No wind46%29.71 "Hg10 mi
9:50 PM86 °FClear.No wind46%29.71 "Hg10 mi
8:50 PM88 °FSunny.No wind40%29.71 "Hg10 mi
8:20 PM88 °FSunny.5 mph40%29.71 "Hg10 mi
7:50 PM90 °FSunny.6 mph41%29.68 "Hg10 mi
7:20 PM90 °FSunny.6 mph41%29.68 "Hg10 mi
6:50 PM91 °FPassing clouds.10 mph36%29.68 "HgN/A
6:20 PM91 °FPassing clouds.9 mph36%29.68 "HgN/A
5:50 PM93 °FPassing clouds.12 mph34%29.68 "HgN/A
5:20 PM93 °FPassing clouds.12 mph36%29.68 "HgN/A
4:50 PM95 °FPassing clouds.14 mph34%29.68 "HgN/A
4:20 PM95 °FPassing clouds.13 mph34%29.68 "HgN/A
3:50 PM97 °FPassing clouds.14 mph32%29.68 "HgN/A
3:20 PM99 °FPassing clouds.14 mph27%29.68 "HgN/A
2:50 PM99 °FPassing clouds.14 mph27%29.68 "HgN/A
2:20 PM99 °FPassing clouds.14 mph27%29.68 "HgN/A
1:50 PM97 °FPassing clouds.12 mph28%29.68 "HgN/A
1:20 PM97 °FPassing clouds.9 mph32%29.68 "HgN/A
12:50 PM97 °FPassing clouds.9 mph32%29.68 "HgN/A
11:50 AM95 °FPassing clouds.7 mph34%29.68 "HgN/A
11:20 AM95 °FPassing clouds.5 mph32%29.71 "HgN/A
10:50 AM93 °FPassing clouds.5 mph34%29.71 "HgN/A
10:20 AM91 °FSunny.5 mph34%29.71 "Hg10 mi
9:50 AM90 °FSunny.5 mph36%29.71 "Hg10 mi
9:20 AM88 °FSunny.5 mph40%29.71 "Hg10 mi
8:50 AM86 °FSunny.No wind43%29.68 "Hg10 mi
8:20 AM84 °FSunny.No wind48%29.68 "Hg10 mi
7:50 AM81 °FSunny.No wind51%29.68 "Hg10 mi
7:20 AM79 °FClear.No wind54%29.68 "Hg10 mi
6:50 AM77 °FClear.No wind57%29.68 "Hg10 mi
6:20 AM77 °FClear.No wind57%29.68 "Hg10 mi
5:50 AM77 °FClear.No wind57%29.68 "Hg10 mi
5:20 AM77 °FClear.No wind57%29.68 "Hg10 mi
4:50 AM77 °FClear.No wind57%29.68 "Hg10 mi
4:20 AM77 °FClear.No wind57%29.68 "Hg10 mi
3:50 AM77 °FClear.No wind57%29.68 "Hg10 mi
2:50 AM79 °FClear.No wind54%29.68 "Hg10 mi
2:20 AM79 °FClear.No wind54%29.71 "Hg10 mi
1:50 AM79 °FClear.No wind54%29.71 "Hg10 mi
12:50 AM79 °FClear.5 mph54%29.71 "Hg10 mi
12:20 AM81 °FClear.No wind54%29.74 "Hg10 mi
Weather by CustomWeather, © 2015

See weather overviewHow to use our weather pages